Location: Trenton
(45.6167°N, 62.6167°W)
Time: 06:39:18
(UTC+00:00)

Tiangong - Visible Passes

Search period start: 23 September 2021 00:00
Search period end: 03 October 2021 00:00
Orbit: 382 x 385 km, 41.5° (Epoch: 22 September)

Date Brightness Start Highest point End Pass type
(mag) Time Alt. Az. Time Alt. Az. Time Alt. Az.
26 Sep 3.9 08:37:39 10° SSE 08:38:29 11° SSE 08:39:19 10° SE visible
27 Sep 3.0 09:12:24 10° SW 09:14:57 22° SSE 09:17:31 10° ESE visible
28 Sep 3.3 08:15:06 16° SSE 08:15:15 16° SSE 08:17:19 10° ESE visible
29 Sep 2.5 08:50:22 20° SSW 08:51:49 29° SSE 08:54:37 10° ESE visible
30 Sep 3.6 07:53:23 17° SE 07:53:23 17° SE 07:54:38 10° ESE visible
30 Sep 2.0 09:25:35 10° WSW 09:28:30 38° S 09:31:29 10° ESE visible
01 Oct 2.0 08:28:35 35° S 08:28:42 35° S 08:31:38 10° ESE visible
02 Oct 4.4 07:31:34 11° ESE 07:31:34 11° ESE 07:31:44 10° ESE visible
02 Oct 1.9 09:03:47 21° WSW 09:05:25 37° S 09:08:22 10° ESE visible
